Hourly Weather Ludwikow

Today, 7 May, Friday

Time Temperature Precipitation Wind Pressure Humidity
00:00 +6°C° 0.3 mm 4 mps 735 mmHg 83%
01:00 +6°C° 0 mm 5 mps 735 mmHg 88%
02:00 +6°C° 0.7 mm 4 mps 735 mmHg 90%
03:00 +5°C° 0.7 mm 4 mps 734 mmHg 91%
04:00 +5°C° 0.7 mm 4 mps 734 mmHg 93%
05:00 +5°C° 0.2 mm 3 mps 734 mmHg 93%
06:00 +7°C° 0.2 mm 3 mps 733 mmHg 93%
07:00 +7°C° 0 mm 2 mps 733 mmHg 93%
08:00 +7°C° 0.1 mm 3 mps 734 mmHg 91%
09:00 +7°C° 0.1 mm 3 mps 734 mmHg 88%
10:00 +8°C° 0.1 mm 3 mps 734 mmHg 86%
11:00 +7°C° 0.1 mm 4 mps 734 mmHg 86%
12:00 +6°C° 0.1 mm 4 mps 735 mmHg 86%
13:00 +6°C° 0.1 mm 4 mps 735 mmHg 86%
14:00 +6°C° 0.1 mm 5 mps 735 mmHg 84%
15:00 +7°C° 0.1 mm 6 mps 736 mmHg 82%
16:00 +7°C° 0.1 mm 6 mps 736 mmHg 80%
17:00 +4°C° 0 mm 7 mps 737 mmHg 83%
18:00 +2°C° 0 mm 8 mps 737 mmHg 87%
19:00 +1°C° 0 mm 8 mps 738 mmHg 90%
20:00 +1°C° 0 mm 8 mps 738 mmHg 89%
21:00 +2°C° 0 mm 7 mps 739 mmHg 88%
22:00 0°C° 0 mm 7 mps 740 mmHg 87%
23:00 +1°C° 0.1 mm 6 mps 740 mmHg 89%

Tomorrow, 8 May, Saturday

Time Temperature Precipitation Wind Pressure Humidity
00:00 +1°C° 0.1 mm 6 mps 741 mmHg 90%
01:00 +1°C° 0.1 mm 6 mps 741 mmHg 92%
02:00 +1°C° 0 mm 6 mps 742 mmHg 89%
03:00 +2°C° 0 mm 6 mps 742 mmHg 86%
04:00 +2°C° 0 mm 6 mps 742 mmHg 83%
05:00 +2°C° 0 mm 6 mps 743 mmHg 81%
06:00 +3°C° 0 mm 6 mps 743 mmHg 80%
07:00 +4°C° 0 mm 6 mps 744 mmHg 78%
08:00 +5°C° 0 mm 6 mps 744 mmHg 70%
09:00 +6°C° 0 mm 7 mps 744 mmHg 61%
10:00 +8°C° 0 mm 7 mps 745 mmHg 53%
11:00 +9°C° 0 mm 6 mps 745 mmHg 50%
12:00 +9°C° 0 mm 6 mps 745 mmHg 48%
13:00 +10°C° 0 mm 6 mps 745 mmHg 45%
14:00 +10°C° 0 mm 6 mps 745 mmHg 46%
15:00 +10°C° 0 mm 5 mps 745 mmHg 46%
16:00 +10°C° 0 mm 5 mps 745 mmHg 46%
17:00 +10°C° 0 mm 4 mps 745 mmHg 52%
18:00 +9°C° 0 mm 3 mps 745 mmHg 58%
19:00 +9°C° 0 mm 1 mps 745 mmHg 64%
20:00 +7°C° 0 mm 2 mps 745 mmHg 66%
21:00 +6°C° 0 mm 2 mps 746 mmHg 68%
22:00 +6°C° 0 mm 2 mps 746 mmHg 70%
23:00 +5°C° 0 mm 2 mps 746 mmHg 72%

Day after tomorrow, 9 May, Sunday

Time Temperature Precipitation Wind Pressure Humidity
00:00 +4°C° 0 mm 3 mps 746 mmHg 74%
01:00 +4°C° 0 mm 3 mps 746 mmHg 76%
02:00 +3°C° 0 mm 3 mps 746 mmHg 77%
03:00 +3°C° 0 mm 3 mps 746 mmHg 77%
04:00 +3°C° 0 mm 3 mps 745 mmHg 77%
05:00 +5°C° 0 mm 4 mps 745 mmHg 72%
06:00 +7°C° 0 mm 4 mps 745 mmHg 68%
07:00 +8°C° 0 mm 5 mps 745 mmHg 63%
08:00 +10°C° 0 mm 5 mps 745 mmHg 58%
09:00 +13°C° 0 mm 6 mps 745 mmHg 54%
10:00 +15°C° 0 mm 7 mps 745 mmHg 49%
11:00 +16°C° 0 mm 6 mps 745 mmHg 48%
12:00 +17°C° 0 mm 6 mps 745 mmHg 47%
13:00 +19°C° 0 mm 6 mps 744 mmHg 46%
14:00 +19°C° 0 mm 6 mps 744 mmHg 48%
15:00 +19°C° 0 mm 5 mps 744 mmHg 50%
16:00 +20°C° 0 mm 4 mps 743 mmHg 51%
17:00 +18°C° 0 mm 4 mps 743 mmHg 58%
18:00 +15°C° 0 mm 4 mps 743 mmHg 65%
19:00 +13°C° 0 mm 3 mps 743 mmHg 72%
20:00 +12°C° 0 mm 3 mps 743 mmHg 75%
21:00 +11°C° 0 mm 3 mps 743 mmHg 77%
22:00 +10°C° 0 mm 3 mps 743 mmHg 80%
23:00 +10°C° 0 mm 3 mps 743 mmHg 80%

10 May, Monday

Time Temperature Precipitation Wind Pressure Humidity
00:00 +9°C° 0 mm 3 mps 743 mmHg 81%
01:00 +9°C° 0 mm 3 mps 743 mmHg 81%
02:00 +9°C° 0 mm 3 mps 743 mmHg 82%
03:00 +8°C° 0 mm 3 mps 743 mmHg 82%
04:00 +8°C° 0 mm 3 mps 743 mmHg 82%
05:00 +8°C° 0 mm 4 mps 743 mmHg 78%
06:00 +11°C° 0 mm 4 mps 743 mmHg 74%
07:00 +12°C° 0 mm 5 mps 743 mmHg 70%
08:00 +14°C° 0 mm 5 mps 742 mmHg 65%
09:00 +16°C° 0 mm 5 mps 742 mmHg 59%
10:00 +19°C° 0 mm 5 mps 742 mmHg 54%
11:00 +20°C° 0 mm 5 mps 742 mmHg 52%
12:00 +21°C° 0 mm 6 mps 742 mmHg 50%
13:00 +23°C° 0 mm 6 mps 741 mmHg 48%
14:00 +23°C° 0 mm 6 mps 742 mmHg 50%
15:00 +23°C° 0 mm 5 mps 742 mmHg 52%
16:00 +23°C° 0 mm 4 mps 742 mmHg 54%
17:00 +21°C° 0 mm 4 mps 742 mmHg 62%
18:00 +19°C° 0 mm 3 mps 742 mmHg 70%
19:00 +17°C° 0 mm 2 mps 742 mmHg 78%
20:00 +16°C° 0 mm 3 mps 742 mmHg 81%
21:00 +14°C° 0 mm 3 mps 742 mmHg 84%
22:00 +13°C° 0 mm 3 mps 742 mmHg 88%
23:00 +13°C° 0 mm 3 mps 742 mmHg 88%

11 May, Tuesday

Time Temperature Precipitation Wind Pressure Humidity
00:00 +12°C° 0 mm 4 mps 741 mmHg 89%
01:00 +12°C° 0 mm 4 mps 741 mmHg 90%
02:00 +11°C° 0 mm 4 mps 741 mmHg 90%
03:00 +11°C° 0 mm 4 mps 740 mmHg 90%
04:00 +10°C° 0 mm 5 mps 740 mmHg 90%
05:00 +12°C° 0 mm 5 mps 740 mmHg 85%
06:00 +14°C° 0 mm 5 mps 740 mmHg 80%
07:00 +15°C° 0 mm 6 mps 740 mmHg 75%
08:00 +17°C° 0 mm 6 mps 740 mmHg 69%
09:00 +20°C° 0 mm 6 mps 740 mmHg 63%
10:00 +22°C° 0 mm 6 mps 740 mmHg 57%
11:00 +23°C° 0 mm 6 mps 740 mmHg 55%
12:00 +24°C° 0 mm 6 mps 740 mmHg 53%
13:00 +26°C° 0 mm 6 mps 739 mmHg 51%
14:00 +26°C° 0 mm 6 mps 739 mmHg 53%
15:00 +26°C° 0 mm 6 mps 739 mmHg 55%
16:00 +26°C° 0 mm 6 mps 739 mmHg 58%
17:00 +23°C° 0 mm 6 mps 739 mmHg 63%
18:00 +21°C° 0 mm 6 mps 738 mmHg 67%
19:00 +20°C° 0 mm 6 mps 738 mmHg 72%
20:00 +19°C° 0 mm 6 mps 738 mmHg 73%
21:00 +16°C° 0 mm 6 mps 738 mmHg 75%
22:00 +15°C° 0 mm 5 mps 738 mmHg 76%
23:00 +15°C° 0 mm 5 mps 738 mmHg 77%

12 May, Wednesday

Time Temperature Precipitation Wind Pressure Humidity
00:00 +14°C° 0 mm 5 mps 738 mmHg 78%
01:00 +13°C° 0 mm 5 mps 738 mmHg 79%
02:00 +12°C° 0 mm 5 mps 737 mmHg 80%
03:00 +12°C° 0 mm 4 mps 737 mmHg 81%
04:00 +11°C° 0 mm 4 mps 737 mmHg 82%
05:00 +13°C° 0 mm 5 mps 737 mmHg 79%
06:00 +14°C° 0 mm 5 mps 737 mmHg 75%
07:00 +16°C° 0 mm 6 mps 737 mmHg 72%
08:00 +17°C° 0 mm 7 mps 737 mmHg 65%
09:00 +20°C° 0 mm 7 mps 737 mmHg 59%
10:00 +22°C° 0 mm 8 mps 737 mmHg 53%
11:00 +22°C° 0 mm 8 mps 737 mmHg 53%
12:00 +23°C° 0 mm 9 mps 736 mmHg 53%
13:00 +23°C° 0 mm 9 mps 736 mmHg 53%
14:00 +23°C° 0 mm 9 mps 736 mmHg 54%
15:00 +22°C° 0 mm 8 mps 736 mmHg 54%
16:00 +21°C° 0 mm 8 mps 736 mmHg 55%
17:00 +20°C° 0 mm 8 mps 736 mmHg 57%
18:00 +17°C° 0 mm 8 mps 736 mmHg 59%
19:00 +15°C° 0 mm 8 mps 736 mmHg 61%
20:00 +15°C° 0 mm 7 mps 736 mmHg 62%
21:00 +14°C° 0 mm 7 mps 736 mmHg 64%
22:00 +14°C° 0 mm 7 mps 736 mmHg 65%
23:00 +13°C° 0 mm 6 mps 736 mmHg 69%
Show more

We Need Your Consent

Meteoprog and our Service Providers may store and access personal data such as cookies, device identifiers or other similar technologies on your device and process such data to personalise content and ads, as well as provide social media features and to analyse the traffic.

  • Store and/or access information on your device

    Cookies, device identifiers or other information can be stored or accessed on your device for the purposes indicated above.

  • Personalised ads and content, ad and content measurement, audience insights, and products development

    Ads and content can be personalised based on a profile. More data can be added to better personalise ads and content. Ad and content performance can be measured. Insights about the audience who saw the ads and content can be derived. Such data can be used to develop or improve user’s experience, systems and software.

By clicking ‘I Agree’ you will allow the use of indicated cookies, device identifiers, web beacons or other similar technologies. Your settings can be changed in the browser on your device.

For certain purposes, legitimate interests may be relied on, rather than consent. You can read more about this in our Privacy and Cookie Policy.